Flag for Russia Weather past 2 weeks in Novorossiysk, Russia

Now
50 °F

Broken clouds.


Feels Like: 49 °F
Forecast: 38 / 43 °F
Wind: 3 mph from East

Location: Anapa / Vitiazevo

Current Time: Mar 6, 2015 at 10:59:53 AM

Latest Report: Mar 6, 2015 at 10:30 AM


Visibility: N/A

Pressure: 30.36 "Hg

Humidity: 62%

Dew point: 37 °F

Location of NovorossiyskLocation

Historic Weather in Novorossiysk — Graph

°F

Novorossiysk temperature yesterday

Maximum temperature yesterday: 48 °F (at 12:30 PM)
Minimum temperature yesterday: 39 °F (at 6:00 AM)
Average temperature yesterday: 45 °F

Past Weeks' High & Low Weather Summary

 TemperatureHumidityPressure
High66 °F (Feb 27, 12:30 PM)100% (Feb 22, 8:00 AM)30.36 "Hg (Feb 22, 8:00 AM)
Low14 °F (Feb 19, 9:00 AM)31% (Feb 24, 12:00 PM)29.77 "Hg (Feb 28, 2:00 PM)
Average42 °F74%30.07 "Hg
* Reported Feb 19 9:00 AM — Mar 6 9:30 AM, Novorossiysk, Weather by CustomWeather, © 2015

Note: Actual official high and low records may vary slightly from our data, if they occured in-between our weather recording intervals... More about our weather records

Advertising

Novorossiysk weather history for previous 24 hours

 ConditionsComfort  
Time TempWeatherWind HumidityBarometerVisibility
9:30 AM
Fri, Mar 6
48 °FBroken clouds.8 mph71%30.36 "HgN/A
9:00 AM46 °FBroken clouds.6 mph76%30.36 "HgN/A
8:30 AM46 °FBroken clouds.3 mph76%30.36 "HgN/A
8:00 AM37 °FBroken clouds.6 mph100%30.36 "HgN/A
7:30 AM34 °FPassing clouds.6 mph93%30.36 "HgN/A
7:00 AM32 °FClear.6 mph93%30.33 "Hg10 mi
6:30 AM34 °FClear.6 mph93%30.36 "Hg10 mi
6:00 AM36 °FClear.6 mph93%30.36 "Hg10 mi
5:00 AM39 °FClear.6 mph87%30.36 "Hg10 mi
4:00 AM41 °FClear.3 mph87%30.36 "Hg10 mi
3:00 AM41 °FClear.6 mph87%30.36 "Hg10 mi
2:00 AM45 °FClear.3 mph81%30.36 "Hg10 mi
1:00 AM45 °FClear.6 mph81%30.36 "Hg10 mi
12:00 AM45 °FClear.6 mph81%30.36 "Hg10 mi
11:00 PM
Thu, Mar 5
45 °FClear.6 mph71%30.36 "Hg10 mi
10:00 PM45 °FClear.6 mph71%30.36 "Hg10 mi
9:00 PM43 °FClear.6 mph71%30.36 "Hg10 mi
8:00 PM46 °FClear.6 mph66%30.33 "Hg10 mi
7:30 PM46 °FClear.10 mph66%30.33 "Hg10 mi
7:00 PM46 °FSunny.8 mph71%30.33 "Hg10 mi
6:30 PM46 °FBroken clouds.10 mph66%30.33 "HgN/A
6:00 PM46 °FSunny.10 mph66%30.33 "Hg10 mi
5:30 PM48 °FSunny.10 mph62%30.30 "Hg10 mi
5:00 PM48 °FSunny.10 mph58%30.30 "Hg10 mi
4:30 PM48 °FSunny.13 mph62%30.30 "Hg10 mi
4:00 PM48 °FSunny.13 mph62%30.30 "Hg10 mi
3:30 PM48 °FSunny.13 mph58%30.30 "Hg10 mi
3:00 PM48 °FSunny.10 mph58%30.30 "Hg10 mi
2:30 PM48 °FSunny.13 mph54%30.30 "Hg10 mi
2:00 PM48 °FBroken clouds.15 mph54%30.30 "HgN/A
1:30 PM46 °FScattered clouds.20 mph53%30.30 "HgN/A
1:00 PM48 °FPassing clouds.17 mph54%30.27 "HgN/A
12:30 PM48 °FPassing clouds.17 mph58%30.27 "HgN/A
12:00 PM46 °FScattered clouds.20 mph57%30.27 "HgN/A
11:30 AM46 °FScattered clouds.20 mph62%30.27 "HgN/A
11:00 AM45 °FPartly sunny.17 mph61%30.27 "HgN/A
10:30 AM45 °FPartly sunny.20 mph61%30.27 "HgN/A
10:00 AM43 °FSunny.20 mph66%30.24 "Hg10 mi
Weather by CustomWeather, © 2015

See weather overviewHow to use our weather pages